Weather History for Sparta, WI

Change the Weather History Date:

Tuesday, March 27, 2012

  Actual Average Record
Temperature  
Mean Temperature 58 °F -  
Max Temperature 77 °F 47 °F 77 °F (2012)
Min Temperature 39 °F 26 °F -3 °F (1964)
Degree Days  
Heating Degree Days 7    
Growing Degree Days 8 (Base 50)    
Moisture  
Dew Point 37 °F    
Average Humidity 51    
Maximum Humidity 66    
Minimum Humidity 22    
Precipitation  
Precipitation 0.00 in - - ()
Sea Level Pressure  
Sea Level Pressure 29.82 in    
Wind  
Wind Speed 13 mph (South)    
Max Wind Speed 23 mph    
Max Gust Speed 37 mph    
Visibility 10 miles    
Events      
Averages and records for this station are not official NWS values.
T = Trace of Precipitation, MM = Missing Value Source: NWS Daily Summary

Daily Weather History Graph

Daily Weather History Graph

Search for Another Location

Airport:

Trip Planner

Search our weather history database for the weather conditions in past years. The results will help you decide how hot, cold, wet, or windy it might be!

Date:

Astronomy

Mar. 27, 2012 Rise Set
Actual Time 6:52 AM CDT 7:24 PM CDT
Civil Twilight 6:23 AM CDT 7:53 PM CDT
Nautical Twilight 5:49 AM CDT 8:27 PM CDT
Astronomical Twilight 5:14 AM CDT 9:03 PM CDT
Moon 9:13 AM CDT (3/27) No Moon Set
Length of Visible Light 13h 29m
Length of Day
12h 32m
Waxing Crescent, 22% of the Moon is Illuminated
Mar 27
Waxing Crescent
Mar 30
First Quarter
Apr 6
Full
Apr 13
Last Quarter
Apr 21
New

Hourly Weather History & Observations

Time (CDT) Temp. Windchill Dew Point Humidity Pressure Visibility Wind Dir Wind Speed Gust Speed Precip Events Conditions
12:15 AM 39.2 °F 32.5 °F 26.6 °F 61% 30.11 in 10.0 mi SE 10.4 mph 19.6 mph N/A   Overcast
12:35 AM 39.2 °F 32.5 °F 26.6 °F 61% 30.10 in 10.0 mi ESE 10.4 mph 19.6 mph N/A   Overcast
12:55 AM 39.2 °F 32.5 °F 26.6 °F 61% 30.09 in 10.0 mi SE 10.4 mph 18.4 mph N/A   Scattered Clouds
1:15 AM 39.2 °F 32.5 °F 26.6 °F 61% 30.08 in 10.0 mi SE 10.4 mph 18.4 mph N/A   Clear
1:35 AM 41.0 °F 35.2 °F 26.6 °F 57% 30.07 in 10.0 mi ESE 9.2 mph - N/A   Clear
1:55 AM 41.0 °F 36.4 °F 26.6 °F 57% 30.06 in 10.0 mi SE 6.9 mph - N/A   Clear
2:15 AM 41.0 °F 32.8 °F 26.6 °F 57% 30.06 in 10.0 mi SE 16.1 mph 23.0 mph N/A   Clear
2:35 AM 41.0 °F 33.9 °F 28.4 °F 61% 30.05 in 10.0 mi SE 12.7 mph 19.6 mph N/A   Clear
2:55 AM 41.0 °F 34.7 °F 28.4 °F 61% 30.06 in 10.0 mi SSE 10.4 mph - N/A   Clear
3:15 AM 41.0 °F 35.8 °F 28.4 °F 61% 30.05 in 10.0 mi SE 8.1 mph - N/A   Clear
3:35 AM 41.0 °F 35.2 °F 28.4 °F 61% 30.04 in 10.0 mi SE 9.2 mph 18.4 mph N/A   Clear
3:55 AM 41.0 °F 35.2 °F 28.4 °F 61% 30.04 in 10.0 mi SE 9.2 mph - N/A   Mostly Cloudy
4:15 AM 41.0 °F 34.3 °F 30.2 °F 65% 30.02 in 10.0 mi SE 11.5 mph - N/A   Overcast
4:35 AM 41.0 °F 34.7 °F 30.2 °F 65% 30.01 in 10.0 mi SE 10.4 mph 19.6 mph N/A   Overcast
4:55 AM 41.0 °F 34.3 °F 30.2 °F 65% 29.99 in 10.0 mi SE 11.5 mph 20.7 mph N/A   Scattered Clouds
5:15 AM 41.0 °F 34.3 °F 30.2 °F 65% 29.98 in 10.0 mi SSE 11.5 mph 17.3 mph N/A   Clear
5:35 AM 42.8 °F 38.6 °F 30.2 °F 61% 29.97 in 10.0 mi SE 6.9 mph - N/A   Clear
5:55 AM 42.8 °F 38.6 °F 30.2 °F 61% 29.95 in 10.0 mi SSE 6.9 mph - N/A   Clear
6:15 AM 42.8 °F 41.1 °F 30.2 °F 61% 29.96 in 10.0 mi South 3.5 mph - N/A   Clear
6:35 AM 42.8 °F 37.5 °F 32.0 °F 66% 29.96 in 10.0 mi SSE 9.2 mph - N/A   Clear
6:55 AM 42.8 °F 38.0 °F 32.0 °F 66% 29.94 in 10.0 mi SSE 8.1 mph 17.3 mph N/A   Scattered Clouds
7:15 AM 42.8 °F 36.6 °F 32.0 °F 66% 29.93 in 10.0 mi SSE 11.5 mph 20.7 mph N/A   Scattered Clouds
7:35 AM 42.8 °F 35.1 °F 32.0 °F 66% 29.92 in 10.0 mi SSE 16.1 mph 25.3 mph N/A   Clear
7:55 AM 44.6 °F 38.1 °F 32.0 °F 61% 29.90 in 10.0 mi SSE 13.8 mph 20.7 mph N/A   Scattered Clouds
8:15 AM 46.4 °F 41.1 °F 32.0 °F 57% 29.88 in 10.0 mi SSE 11.5 mph 20.7 mph N/A   Clear
8:35 AM 46.4 °F 39.8 °F 32.0 °F 57% 29.86 in 10.0 mi South 16.1 mph 24.2 mph N/A   Clear
8:55 AM 50.0 °F - 33.8 °F 54% 29.85 in 10.0 mi South 17.3 mph 23.0 mph N/A   Clear
9:15 AM 50.0 °F - 33.8 °F 54% 29.85 in 10.0 mi South 16.1 mph 28.8 mph N/A   Mostly Cloudy
9:35 AM 50.0 °F - 35.6 °F 58% 29.84 in 10.0 mi South 8.1 mph 23.0 mph N/A   Overcast
9:55 AM 50.0 °F - 35.6 °F 58% 29.83 in 10.0 mi South 16.1 mph 25.3 mph N/A   Overcast
10:15 AM 50.0 °F - 35.6 °F 58% 29.82 in 10.0 mi South 18.4 mph 25.3 mph N/A   Overcast
10:35 AM 51.8 °F - 37.4 °F 58% 29.81 in 10.0 mi South 16.1 mph 33.4 mph N/A   Overcast
10:55 AM 53.6 °F - 37.4 °F 54% 29.79 in 10.0 mi South 17.3 mph 32.2 mph N/A   Overcast
10:58 AM 55.4 °F - 39.2 °F 54% 29.79 in 10.0 mi South 18.4 mph 32.2 mph N/A   Overcast
11:15 AM 55.4 °F - 39.2 °F 54% 29.78 in 10.0 mi South 23.0 mph 31.1 mph N/A   Mostly Cloudy
11:35 AM 57.2 °F - 41.0 °F 55% 29.78 in 10.0 mi South 17.3 mph 29.9 mph N/A   Scattered Clouds
11:55 AM 59.0 °F - 42.8 °F 55% 29.76 in 10.0 mi South 13.8 mph 28.8 mph N/A   Scattered Clouds
12:15 PM 60.8 °F - 44.6 °F 55% 29.75 in 10.0 mi SSW 15.0 mph 26.5 mph N/A   Mostly Cloudy
12:35 PM 62.6 °F - 44.6 °F 52% 29.74 in 10.0 mi South 17.3 mph 26.5 mph N/A   Mostly Cloudy
12:55 PM 64.4 °F - 46.4 °F 52% 29.73 in 10.0 mi South 18.4 mph 31.1 mph N/A   Scattered Clouds
1:15 PM 62.6 °F - 46.4 °F 55% 29.72 in 10.0 mi South 16.1 mph 27.6 mph N/A   Mostly Cloudy
1:35 PM 64.4 °F - 48.2 °F 56% 29.70 in 10.0 mi SSW 15.0 mph 21.9 mph N/A   Overcast
1:55 PM 66.2 °F - 50.0 °F 56% 29.68 in 10.0 mi SSW 15.0 mph 28.8 mph N/A   Mostly Cloudy
2:15 PM 68.0 °F - 50.0 °F 52% 29.67 in 10.0 mi South 21.9 mph 29.9 mph N/A   Scattered Clouds
2:35 PM 69.8 °F - 51.8 °F 53% 29.65 in 10.0 mi South 17.3 mph 25.3 mph N/A   Mostly Cloudy
2:54 PM 71.6 °F - 53.6 °F 53% 29.64 in 10.0 mi SSW 15.0 mph 24.2 mph N/A   Mostly Cloudy
2:55 PM 69.8 °F - 51.8 °F 53% 29.64 in 10.0 mi SSW 15.0 mph 24.2 mph N/A   Mostly Cloudy
3:15 PM 73.4 °F - 53.6 °F 50% 29.62 in 10.0 mi SSW 16.1 mph 24.2 mph N/A   Mostly Cloudy
3:16 PM 73.4 °F - 53.6 °F 50% 29.62 in 10.0 mi SSW 17.3 mph 24.2 mph N/A   Mostly Cloudy
3:34 PM 75.2 °F - 51.8 °F 44% 29.62 in 10.0 mi SW 8.1 mph 24.2 mph N/A   Mostly Cloudy
3:35 PM 73.4 °F - 50.0 °F 44% 29.62 in 10.0 mi SW 9.2 mph 24.2 mph N/A   Mostly Cloudy
3:55 PM 77.0 °F - 42.8 °F 29% 29.62 in 10.0 mi SW 13.8 mph 36.8 mph N/A   Scattered Clouds
4:14 PM 77.0 °F - 39.2 °F 26% 29.62 in 10.0 mi WSW 23.0 mph 36.8 mph N/A   Scattered Clouds
4:15 PM 77.0 °F - 39.2 °F 26% 29.62 in 10.0 mi WSW 23.0 mph 36.8 mph N/A   Scattered Clouds
4:35 PM 75.2 °F - 35.6 °F 24% 29.62 in 10.0 mi West 16.1 mph 36.8 mph N/A   Clear
4:54 PM 75.2 °F - 33.8 °F 22% 29.62 in 10.0 mi West 18.4 mph 29.9 mph N/A   Clear
4:55 PM 75.2 °F - 33.8 °F 22% 29.62 in 10.0 mi West 18.4 mph 29.9 mph N/A   Clear
5:14 PM 75.2 °F - 35.6 °F 24% 29.63 in 10.0 mi West 17.3 mph 31.1 mph N/A   Clear
5:15 PM 73.4 °F - 35.6 °F 25% 29.63 in 10.0 mi West 17.3 mph 31.1 mph N/A   Clear
5:35 PM 73.4 °F - 35.6 °F 25% 29.62 in 10.0 mi West 20.7 mph 27.6 mph N/A   Clear
5:55 PM 73.4 °F - 35.6 °F 25% 29.63 in 10.0 mi WSW 10.4 mph 26.5 mph N/A   Clear
6:15 PM 71.6 °F - 35.6 °F 27% 29.64 in 10.0 mi WSW 16.1 mph 26.5 mph N/A   Clear
6:35 PM 71.6 °F - 37.4 °F 29% 29.64 in 10.0 mi West 16.1 mph 28.8 mph N/A   Clear
6:55 PM 69.8 °F - 39.2 °F 33% 29.65 in 10.0 mi WSW 13.8 mph 33.4 mph N/A   Clear
7:15 PM 69.8 °F - 39.2 °F 33% 29.65 in 10.0 mi WSW 9.2 mph 26.5 mph N/A   Clear
7:35 PM 69.8 °F - 39.2 °F 33% 29.65 in 10.0 mi WSW 12.7 mph 25.3 mph N/A   Clear
7:55 PM 68.0 °F - 41.0 °F 37% 29.66 in 10.0 mi West 12.7 mph 20.7 mph N/A   Clear
8:15 PM 68.0 °F - 41.0 °F 37% 29.68 in 10.0 mi West 12.7 mph 19.6 mph N/A   Scattered Clouds
8:35 PM 68.0 °F - 41.0 °F 37% 29.69 in 10.0 mi West 12.7 mph 26.5 mph N/A   Scattered Clouds
8:55 PM 66.2 °F - 41.0 °F 40% 29.70 in 10.0 mi West 17.3 mph 24.2 mph N/A   Clear
9:15 PM 64.4 °F - 41.0 °F 42% 29.72 in 10.0 mi West 12.7 mph 20.7 mph N/A   Clear
9:35 PM 62.6 °F - 41.0 °F 45% 29.73 in 10.0 mi West 16.1 mph 21.9 mph N/A   Mostly Cloudy
9:55 PM 62.6 °F - 41.0 °F 45% 29.74 in 10.0 mi West 10.4 mph 21.9 mph N/A   Scattered Clouds
10:15 PM 60.8 °F - 41.0 °F 48% 29.75 in 10.0 mi West 16.1 mph 21.9 mph N/A   Clear
10:35 PM 59.0 °F - 41.0 °F 51% 29.76 in 10.0 mi West 15.0 mph 23.0 mph N/A   Scattered Clouds
10:55 PM 59.0 °F - 39.2 °F 48% 29.77 in 10.0 mi West 11.5 mph 23.0 mph N/A   Clear
11:15 PM 57.2 °F - 39.2 °F 51% 29.78 in 10.0 mi West 11.5 mph 17.3 mph N/A   Clear
11:35 PM 55.4 °F - 39.2 °F 54% 29.78 in 10.0 mi West 10.4 mph - N/A   Clear
11:55 PM 55.4 °F - 37.4 °F 51% 29.78 in 10.0 mi West 13.8 mph 19.6 mph N/A   Clear